Location: ČR
(50.0000°N, 15.0000°E)
Time: 20:45:23
(UTC+00:00)

Vanguard 3 - Pass Details

Date: 23 October 2021
Orbit: 508 x 3260 km, 33.4° (Epoch: 04 December)

Event Time Altitude Azimuth Distance (km) Brightness Sun altitude
Rises 19:09:54 0° 252° (WSW) 4,176 11.5 -31.9°
Reaches altitude 10° 19:12:42 10° 242° (WSW) 3,537 10.8 -32.3°
Maximum altitude 19:20:42 31° 185° (S) 3,075 9.8 -33.5°
Enters shadow 19:21:52 30° 176° (S) 3,201 9.8 -33.7°
Drops below altitude 10° 19:32:55 10° 132° (SE) 5,481 - -35.3°
Sets 19:38:39 0° 124° (SE) 6,844 - -36.1°
